DKH1201 ZGGG-ZGSZ

Flight info

Callsign DKH1201
Flight time 0h 17m
Altitude 11800
Route SAREX9 SAREX SAREX3
Aircraft B789/H-SDE1E2E3FGHIJ2J3J4J5M1RWXY/LB1D1

Departure

Time 2026-04-16 09:21
Airport Guangzhou Baiyun International Airport (ZGGG)

Arrival

Time 2026-04-16 09:38
Airport Shenzhen Bao'an International Airport (ZGSZ)
Time Latitude Longitude Altitude Speed Heading
2026-04-16 09:17 23.40913 113.31289 55 ft 0 kts 102°
2026-04-16 09:19 23.40905 113.31328 54 ft 9 kts 102°
2026-04-16 09:19 23.40868 113.31412 53 ft 11 kts 148°
2026-04-16 09:20 23.40800 113.31406 58 ft 13 kts 194°
2026-04-16 09:20 23.40552 113.31340 55 ft 72 kts 194°
2026-04-16 09:20 23.39822 113.31144 55 ft 143 kts 194°
2026-04-16 09:20 23.38666 113.30815 194 ft 192 kts 196°
2026-04-16 09:21 23.37443 113.30437 1323 ft 176 kts 194°
2026-04-16 09:21 23.36265 113.30084 2346 ft 173 kts 196°
2026-04-16 09:21 23.35018 113.29779 2839 ft 198 kts 190°
2026-04-16 09:21 23.33570 113.29465 3280 ft 225 kts 193°
2026-04-16 09:22 23.32003 113.29044 4092 ft 233 kts 194°
2026-04-16 09:22 23.30430 113.28607 5163 ft 236 kts 194°
2026-04-16 09:22 23.28774 113.28465 6102 ft 244 kts 178°
2026-04-16 09:22 23.27086 113.28565 7225 ft 240 kts 172°
2026-04-16 09:23 23.25600 113.29386 8487 ft 244 kts 145°
2026-04-16 09:23 23.24251 113.30524 9505 ft 254 kts 148°
2026-04-16 09:23 23.22770 113.31607 9959 ft 256 kts 153°
2026-04-16 09:23 23.21230 113.32579 9979 ft 254 kts 155°
2026-04-16 09:24 23.19728 113.33520 9954 ft 245 kts 154°
2026-04-16 09:24 23.18267 113.34471 9602 ft 245 kts 153°
2026-04-16 09:24 23.16813 113.35427 9270 ft 243 kts 153°
2026-04-16 09:24 23.15362 113.36372 8949 ft 242 kts 153°
2026-04-16 09:25 23.13925 113.37307 8656 ft 241 kts 153°
2026-04-16 09:25 23.12494 113.38238 8358 ft 239 kts 153°
2026-04-16 09:25 23.11094 113.39149 8052 ft 237 kts 153°
2026-04-16 09:25 23.09681 113.40069 7748 ft 236 kts 153°
2026-04-16 09:26 23.08277 113.40981 7439 ft 235 kts 153°
2026-04-16 09:26 23.06877 113.41891 7142 ft 234 kts 152°
2026-04-16 09:26 23.05485 113.42797 6843 ft 232 kts 152°
2026-04-16 09:26 23.04122 113.43684 6520 ft 229 kts 153°
2026-04-16 09:27 23.02740 113.44578 6117 ft 231 kts 152°
2026-04-16 09:27 23.01360 113.45475 5748 ft 230 kts 152°
2026-04-16 09:27 23.00017 113.46348 5410 ft 228 kts 151°
2026-04-16 09:27 22.98647 113.47238 4808 ft 236 kts 152°
2026-04-16 09:28 22.97180 113.48187 4086 ft 249 kts 151°
2026-04-16 09:28 22.95723 113.49136 3741 ft 241 kts 152°
2026-04-16 09:28 22.94295 113.50064 3398 ft 238 kts 152°
2026-04-16 09:28 22.92898 113.50970 3305 ft 233 kts 151°
2026-04-16 09:29 22.91495 113.51880 3298 ft 236 kts 152°
2026-04-16 09:29 22.90075 113.52797 3305 ft 240 kts 151°
2026-04-16 09:29 22.88641 113.53727 3303 ft 241 kts 150°
2026-04-16 09:29 22.87231 113.54644 3302 ft 237 kts 151°
2026-04-16 09:30 22.85804 113.55580 3307 ft 241 kts 149°
2026-04-16 09:30 22.84715 113.56949 3285 ft 243 kts 121°
2026-04-16 09:30 22.84305 113.58646 3275 ft 230 kts 95°
2026-04-16 09:30 22.84583 113.60322 3271 ft 224 kts 68°
2026-04-16 09:31 22.85276 113.61762 3298 ft 209 kts 64°
2026-04-16 09:31 22.85933 113.63127 3295 ft 202 kts 65°
2026-04-16 09:31 22.86568 113.64459 3294 ft 197 kts 65°
2026-04-16 09:31 22.87196 113.65791 3297 ft 197 kts 66°
2026-04-16 09:32 22.87391 113.67141 3229 ft 176 kts 103°
2026-04-16 09:32 22.86793 113.68247 3232 ft 174 kts 141°
2026-04-16 09:32 22.85809 113.68952 3285 ft 164 kts 153°
2026-04-16 09:32 22.84795 113.69552 3289 ft 168 kts 155°
2026-04-16 09:33 22.83726 113.70149 3302 ft 179 kts 156°
2026-04-16 09:33 22.82635 113.70754 3301 ft 171 kts 157°
2026-04-16 09:33 22.81561 113.71345 3302 ft 178 kts 156°
2026-04-16 09:33 22.80452 113.71958 3222 ft 180 kts 156°
2026-04-16 09:34 22.79377 113.72554 3013 ft 171 kts 158°
2026-04-16 09:34 22.78331 113.73129 2779 ft 169 kts 156°
2026-04-16 09:34 22.77279 113.73709 2565 ft 168 kts 156°
2026-04-16 09:34 22.76280 113.74262 2349 ft 153 kts 157°
2026-04-16 09:35 22.75339 113.74779 2154 ft 153 kts 157°
2026-04-16 09:35 22.74367 113.75311 1955 ft 159 kts 156°
2026-04-16 09:35 22.73394 113.75858 1745 ft 155 kts 156°
2026-04-16 09:35 22.72430 113.76388 1550 ft 158 kts 156°
2026-04-16 09:36 22.71456 113.76928 1346 ft 154 kts 156°
2026-04-16 09:36 22.70542 113.77433 1155 ft 146 kts 157°
2026-04-16 09:36 22.69615 113.77938 971 ft 157 kts 155°
2026-04-16 09:36 22.68622 113.78487 769 ft 157 kts 156°
2026-04-16 09:37 22.67669 113.79014 571 ft 156 kts 156°
2026-04-16 09:37 22.66690 113.79553 360 ft 154 kts 159°
2026-04-16 09:37 22.65745 113.80063 160 ft 154 kts 156°
2026-04-16 09:37 22.64832 113.80579 29 ft 138 kts 156°
2026-04-16 09:38 22.64201 113.80917 25 ft 63 kts 153°
2026-04-16 09:38 22.63883 113.81058 25 ft 42 kts 172°
2026-04-16 09:38 22.63680 113.81032 24 ft 20 kts 222°
2026-04-16 09:38 22.63628 113.80897 24 ft 20 kts 253°
2026-04-16 09:39 22.63573 113.80796 23 ft 9 kts 205°
2026-04-16 09:39 22.63509 113.80782 24 ft 10 kts 182°
2026-04-16 09:39 22.63478 113.80781 24 ft 0 kts 182°